When you browse on this site, cookies collect data to enhance your experience and personalize the content and advertising you see.
Visit our Privacy Policy to learn more. By continuing to use the site, you agree to this use of cookies and data.
  • Em Portugal
  • Lista de países
  • Para 7 dias
  • Temperatura da água
  • Mapa do tempo
  • Widgets de tempo
  • user-avatar
    Iniciar Sessão

    Previsão horária em Chester

    Hoje, 29 Maio, Sexta-feira

    Tempo Temperatura Precipitação Vento Pressão Humidade
    00:00 +22°C° 0.4 mm 4 m/s 762 mmHg 92%
    01:00 +22°C° 0 mm 3 m/s 762 mmHg 92%
    02:00 +22°C° 0 mm 3 m/s 762 mmHg 92%
    03:00 +22°C° 0 mm 3 m/s 762 mmHg 93%
    04:00 +21°C° 0 mm 3 m/s 761 mmHg 93%
    05:00 +22°C° 0.2 mm 4 m/s 762 mmHg 91%
    06:00 +23°C° 0.2 mm 4 m/s 762 mmHg 89%
    07:00 +25°C° 0 mm 3 m/s 762 mmHg 90%
    08:00 +25°C° 0.6 mm 3 m/s 762 mmHg 88%
    09:00 +26°C° 0.6 mm 3 m/s 761 mmHg 86%
    10:00 +26°C° 0.6 mm 4 m/s 761 mmHg 85%
    11:00 +27°C° 0 mm 4 m/s 761 mmHg 81%
    12:00 +28°C° 0 mm 4 m/s 760 mmHg 77%
    13:00 +29°C° 0 mm 4 m/s 760 mmHg 73%
    14:00 +29°C° 0.1 mm 4 m/s 759 mmHg 72%
    15:00 +29°C° 0.1 mm 5 m/s 759 mmHg 71%
    16:00 +29°C° 0.1 mm 5 m/s 758 mmHg 69%
    17:00 +29°C° 0.2 mm 5 m/s 758 mmHg 72%
    18:00 +28°C° 0.2 mm 5 m/s 758 mmHg 74%
    19:00 +27°C° 0.2 mm 5 m/s 758 mmHg 76%
    20:00 +26°C° 0.1 mm 5 m/s 758 mmHg 77%
    21:00 +26°C° 0.1 mm 4 m/s 758 mmHg 79%
    22:00 +25°C° 0.1 mm 4 m/s 758 mmHg 80%
    23:00 +25°C° 0.3 mm 4 m/s 758 mmHg 81%

    Amanhã, 30 Maio, Sábado

    Tempo Temperatura Precipitação Vento Pressão Humidade
    00:00 +24°C° 0.3 mm 3 m/s 758 mmHg 82%
    01:00 +24°C° 0.3 mm 3 m/s 758 mmHg 82%
    02:00 +23°C° 0 mm 2 m/s 758 mmHg 83%
    03:00 +23°C° 0 mm 2 m/s 758 mmHg 84%
    04:00 +21°C° 0 mm 2 m/s 757 mmHg 85%
    05:00 +23°C° 0 mm 2 m/s 758 mmHg 82%
    06:00 +23°C° 0 mm 2 m/s 758 mmHg 79%
    07:00 +24°C° 0 mm 3 m/s 758 mmHg 77%
    08:00 +25°C° 0 mm 3 m/s 758 mmHg 69%
    09:00 +26°C° 0 mm 3 m/s 758 mmHg 62%
    10:00 +27°C° 0 mm 3 m/s 758 mmHg 54%
    11:00 +28°C° 0 mm 3 m/s 758 mmHg 49%
    12:00 +29°C° 0 mm 3 m/s 758 mmHg 43%
    13:00 +30°C° 0 mm 4 m/s 757 mmHg 37%
    14:00 +29°C° 0 mm 4 m/s 757 mmHg 37%
    15:00 +29°C° 0 mm 4 m/s 757 mmHg 37%
    16:00 +29°C° 0 mm 4 m/s 757 mmHg 37%
    17:00 +28°C° 0 mm 4 m/s 757 mmHg 42%
    18:00 +27°C° 0 mm 4 m/s 757 mmHg 47%
    19:00 +25°C° 0 mm 3 m/s 758 mmHg 52%
    20:00 +24°C° 0 mm 3 m/s 758 mmHg 53%
    21:00 +23°C° 0 mm 4 m/s 758 mmHg 54%
    22:00 +22°C° 0 mm 4 m/s 759 mmHg 55%
    23:00 +20°C° 0 mm 4 m/s 759 mmHg 55%

    Depois de amanhã, 31 Maio, Domingo

    Tempo Temperatura Precipitação Vento Pressão Humidade
    00:00 +19°C° 0 mm 5 m/s 759 mmHg 55%
    01:00 +17°C° 0 mm 5 m/s 760 mmHg 55%
    02:00 +16°C° 0 mm 5 m/s 760 mmHg 55%
    03:00 +15°C° 0 mm 5 m/s 761 mmHg 56%
    04:00 +14°C° 0 mm 5 m/s 761 mmHg 56%
    05:00 +14°C° 0 mm 5 m/s 761 mmHg 54%
    06:00 +14°C° 0 mm 5 m/s 762 mmHg 52%
    07:00 +14°C° 0 mm 5 m/s 762 mmHg 50%
    08:00 +15°C° 0 mm 5 m/s 763 mmHg 48%
    09:00 +16°C° 0 mm 5 m/s 763 mmHg 45%
    10:00 +17°C° 0 mm 5 m/s 763 mmHg 42%
    11:00 +19°C° 0 mm 5 m/s 763 mmHg 40%
    12:00 +20°C° 0 mm 4 m/s 763 mmHg 37%
    13:00 +21°C° 0 mm 4 m/s 763 mmHg 34%
    14:00 +22°C° 0 mm 5 m/s 763 mmHg 34%
    15:00 +22°C° 0 mm 5 m/s 762 mmHg 34%
    16:00 +22°C° 0 mm 5 m/s 762 mmHg 34%
    17:00 +21°C° 0 mm 5 m/s 762 mmHg 36%
    18:00 +20°C° 0 mm 4 m/s 763 mmHg 38%
    19:00 +18°C° 0 mm 4 m/s 763 mmHg 40%
    20:00 +18°C° 0 mm 4 m/s 764 mmHg 38%
    21:00 +17°C° 0 mm 4 m/s 764 mmHg 36%
    22:00 +15°C° 0 mm 4 m/s 764 mmHg 34%
    23:00 +15°C° 0 mm 4 m/s 765 mmHg 36%

    1 Junho, Segunda-feira

    Tempo Temperatura Precipitação Vento Pressão Humidade
    00:00 +14°C° 0 mm 3 m/s 765 mmHg 38%
    01:00 +13°C° 0 mm 3 m/s 765 mmHg 40%
    02:00 +13°C° 0 mm 3 m/s 766 mmHg 43%
    03:00 +12°C° 0 mm 3 m/s 766 mmHg 47%
    04:00 +13°C° 0 mm 2 m/s 766 mmHg 50%
    05:00 +13°C° 0 mm 3 m/s 766 mmHg 50%
    06:00 +13°C° 0 mm 3 m/s 767 mmHg 51%
    07:00 +14°C° 0 mm 3 m/s 767 mmHg 51%
    08:00 +17°C° 0 mm 3 m/s 767 mmHg 47%
    09:00 +18°C° 0 mm 4 m/s 767 mmHg 43%
    10:00 +20°C° 0 mm 5 m/s 767 mmHg 39%
    11:00 +21°C° 0 mm 5 m/s 766 mmHg 37%
    12:00 +21°C° 0 mm 5 m/s 766 mmHg 36%
    13:00 +22°C° 0 mm 5 m/s 766 mmHg 34%
    14:00 +22°C° 0 mm 4 m/s 765 mmHg 34%
    15:00 +22°C° 0 mm 4 m/s 765 mmHg 34%
    16:00 +22°C° 0 mm 4 m/s 765 mmHg 35%
    17:00 +22°C° 0 mm 4 m/s 765 mmHg 37%
    18:00 +21°C° 0 mm 3 m/s 765 mmHg 40%
    19:00 +20°C° 0 mm 2 m/s 765 mmHg 42%
    20:00 +19°C° 0 mm 2 m/s 765 mmHg 44%
    21:00 +18°C° 0 mm 2 m/s 766 mmHg 47%
    22:00 +18°C° 0 mm 1 m/s 766 mmHg 49%
    23:00 +18°C° 0 mm 1 m/s 766 mmHg 51%

    2 Junho, Terça-feira

    Tempo Temperatura Precipitação Vento Pressão Humidade
    00:00 +16°C° 0 mm 1 m/s 766 mmHg 53%
    01:00 +16°C° 0 mm 1 m/s 766 mmHg 55%
    02:00 +15°C° 0 mm 1 m/s 766 mmHg 57%
    03:00 +15°C° 0 mm 1 m/s 766 mmHg 59%
    04:00 +15°C° 0 mm 1 m/s 766 mmHg 60%
    05:00 +15°C° 0 mm 2 m/s 766 mmHg 58%
    06:00 +16°C° 0 mm 2 m/s 766 mmHg 57%
    07:00 +17°C° 0 mm 2 m/s 766 mmHg 55%
    08:00 +19°C° 0 mm 3 m/s 765 mmHg 51%
    09:00 +20°C° 0 mm 3 m/s 765 mmHg 48%
    10:00 +22°C° 0 mm 4 m/s 764 mmHg 44%
    11:00 +21°C° 0.1 mm 3 m/s 764 mmHg 51%
    12:00 +20°C° 0.1 mm 2 m/s 763 mmHg 57%
    13:00 +19°C° 0.1 mm 2 m/s 763 mmHg 63%
    14:00 +20°C° 0.1 mm 2 m/s 762 mmHg 66%
    15:00 +20°C° 0.1 mm 2 m/s 761 mmHg 68%
    16:00 +20°C° 0.1 mm 3 m/s 761 mmHg 71%
    17:00 +19°C° 0.2 mm 3 m/s 760 mmHg 75%
    18:00 +19°C° 0.2 mm 2 m/s 760 mmHg 79%
    19:00 +18°C° 0.2 mm 2 m/s 759 mmHg 83%
    20:00 +18°C° 0.9 mm 2 m/s 759 mmHg 86%
    21:00 +18°C° 0.9 mm 2 m/s 758 mmHg 89%
    22:00 +18°C° 0.9 mm 2 m/s 758 mmHg 92%
    23:00 +18°C° 1.4 mm 2 m/s 757 mmHg 92%

    3 Junho, Quarta-feira

    Tempo Temperatura Precipitação Vento Pressão Humidade
    00:00 +19°C° 1.4 mm 2 m/s 756 mmHg 92%
    01:00 +19°C° 1.4 mm 2 m/s 756 mmHg 92%
    02:00 +19°C° 0.4 mm 2 m/s 755 mmHg 92%
    03:00 +19°C° 0.4 mm 2 m/s 755 mmHg 92%
    04:00 +18°C° 0.4 mm 3 m/s 754 mmHg 92%
    05:00 +20°C° 0 mm 3 m/s 755 mmHg 89%
    06:00 +21°C° 0 mm 4 m/s 755 mmHg 87%
    07:00 +22°C° 0 mm 4 m/s 755 mmHg 84%
    08:00 +25°C° 0 mm 5 m/s 755 mmHg 75%
    09:00 +26°C° 0 mm 6 m/s 755 mmHg 66%
    10:00 +28°C° 0 mm 6 m/s 755 mmHg 57%
    11:00 +29°C° 0 mm 6 m/s 755 mmHg 51%
    12:00 +30°C° 0 mm 6 m/s 755 mmHg 45%
    13:00 +32°C° 0 mm 6 m/s 755 mmHg 39%
    14:00 +32°C° 0 mm 6 m/s 755 mmHg 39%
    15:00 +33°C° 0 mm 5 m/s 754 mmHg 39%
    16:00 +33°C° 0 mm 5 m/s 754 mmHg 39%
    17:00 +32°C° 0 mm 4 m/s 755 mmHg 44%
    18:00 +30°C° 0 mm 3 m/s 755 mmHg 50%
    19:00 +28°C° 0 mm 2 m/s 755 mmHg 55%
    20:00 +27°C° 0 mm 2 m/s 755 mmHg 58%
    21:00 +26°C° 0 mm 1 m/s 755 mmHg 60%
    22:00 +25°C° 0 mm 1 m/s 755 mmHg 63%
    23:00 +25°C° 0 mm 1 m/s 755 mmHg 64%
    Mostrar mais